This demonstration page uses our WeatherBlox Daily Observations layout. Learn more.

Left ArrowRight Arrow

44.89941, -97.11507

Hourly Observations for November 2, 2019

Temp ( °F °C ) Dew Point ( °F °C ) Humidity (%) Winds ( mph kmh ) Pressure ( in mb ) Visibility ( mi km ) Precip ( " mm )
12:18 am 00:18 Cloudy 34 1.1 28 -2.2 79 79 WNW 15 24 30.19 1022 10 16 0.00 0.00
12:42 am 00:42 Cloudy with Light Snow 33 0.6 29 -1.7 85 85 WNW 12 19 30.20 1023 4 6 0.00 0.00
12:53 am 00:53 Cloudy 34 1.1 29 -1.7 82 82 WNW 17 28 30.16 1021 9 14 0.00 0.00
1:34 am 01:34 Cloudy 33 0.6 29 -1.7 85 85 WNW 15 24 30.20 1023 9 14 0.00 0.00
1:42 am 01:42 Windy with Snow Likely 33 0.6 29 -1.7 85 85 WNW 20 31 30.21 1023 5 8 0.00 0.00
1:53 am 01:53 Cloudy with Light Snow 32 0 30 -1.1 92 92 NW 17 28 30.17 1022 3 4 0.00 0.00
2:00 am 02:00 Cloudy with Light Snow 32 0 30 -1.1 92 92 NW 15 24 30.21 1023 5 8 0.00 0.00
2:13 am 02:13 Cloudy with Light Snow 32 0 30 -1.1 92 92 WNW 10 17 30.21 1023 8 13 0.00 0.00
2:24 am 02:24 Cloudy with Light Snow 32 0 30 -1.1 92 92 WNW 14 22 30.20 1023 9 14 0.00 0.00
2:31 am 02:31 Cloudy 32 0 30 -1.1 92 92 WNW 15 24 30.20 1023 9 14 0.00 0.00
2:53 am 02:53 Cloudy 32 0 28 -2.2 85 85 NW 17 28 30.17 1022 10 16 0.00 0.00
3:53 am 03:53 Cloudy 32 0 27 -2.8 82 82 WNW 14 22 30.18 1022 10 16 0.00 0.00
4:53 am 04:53 Cloudy 32 0 27 -2.8 82 82 NW 14 22 30.18 1022 10 16 0.00 0.00
5:44 am 05:44 Cloudy 32 0 27 -2.8 82 82 WNW 12 19 30.21 1023 10 16 0.00 0.00
5:53 am 05:53 Cloudy 32 0 27 -2.8 82 82 NW 9 15 30.19 1022 10 16 0.00 0.00
6:15 am 06:15 Cloudy 32 0 27 -2.8 82 82 WNW 9 15 30.21 1023 10 16 0.00 0.00
6:53 am 06:53 Cloudy 32 0 27 -2.8 82 82 WNW 12 19 30.19 1022 10 16 0.00 0.00
7:53 am 07:53 Cloudy 32 0 26 -3.3 79 79 WNW 10 17 30.19 1022 10 16 0.00 0.00
8:53 am 08:53 Cloudy 32 0 25 -3.9 75 75 WNW 12 19 30.19 1022 10 16 0.00 0.00
9:53 am 09:53 Cloudy 33 0.6 26 -3.3 75 75 WNW 7 11 30.20 1023 10 16 0.00 0.00
10:03 am 10:03 Cloudy 34 1.1 26 -3.3 73 73 WNW 9 15 30.22 1023 10 16 0.00 0.00
10:53 am 10:53 Cloudy 35 1.7 25 -3.9 67 67 WNW 16 26 30.19 1023 10 16 0.00 0.00
11:35 am 11:35 Partly Cloudy 37 2.8 25 -3.9 62 62 NW 17 28 30.20 1023 10 16 0.00 0.00
11:53 am 11:53 Mostly Cloudy 37 2.8 26 -3.3 65 65 WNW 17 28 30.19 1022 10 16 0.00 0.00
12:05 pm 12:05 Partly Cloudy 38 3.3 26 -3.3 62 62 WNW 13 20 30.20 1023 10 16 0.00 0.00
12:53 pm 12:53 Mostly Sunny 40 4.4 27 -2.8 60 60 WNW 13 20 30.17 1022 10 16 0.00 0.00
1:53 pm 13:53 Sunny 42 5.6 29 -1.7 60 60 W 13 20 30.14 1021 10 16 0.00 0.00
2:53 pm 14:53 Sunny 42 5.6 29 -1.7 60 60 W 10 17 30.12 1020 10 16 0.00 0.00
3:53 pm 15:53 Sunny 42 5.6 28 -2.2 58 58 WSW 12 19 30.10 1019 10 16 0.00 0.00
4:53 pm 16:53 Partly Cloudy 42 5.6 29 -1.7 60 60 WSW 13 20 30.09 1019 10 16 0.00 0.00
5:53 pm 17:53 Sunny 38 3.3 29 -1.7 70 70 WSW 7 11 30.09 1019 10 16 0.00 0.00
6:53 pm 18:53 Clear 34 1.1 27 -2.8 76 76 S 5 7 30.08 1019 10 16 0.00 0.00
7:53 pm 19:53 Clear 34 1.1 28 -2.2 79 79 Calm 30.07 1018 10 16 0.00 0.00
8:53 pm 20:53 Mostly Clear 33 0.6 27 -2.8 78 78 SSE 5 7 30.04 1017 10 16 0.00 0.00
9:53 pm 21:53 Clear 32 0 27 -2.8 82 82 SE 3 6 30.03 1017 10 16 0.00 0.00
10:53 pm 22:53 Cloudy 33 0.6 28 -2.2 82 82 SSE 3 6 30.02 1017 10 16 0.00 0.00
11:53 pm 23:53 Cloudy 34 1.1 28 -2.2 79 79 ESE 3 6 29.99 1016 10 16 0.00 0.00

Powered by AerisWeather